TimeCDT,TemperatureF,Dew PointF,Humidity,Sea Level PressureIn,VisibilityMPH,Wind Direction,Wind SpeedMPH,Gust SpeedMPH,PrecipitationIn,Events,Conditions,WindDirDegrees,DateUTC
12:52 AM,23.0,21.0,92,30.40,10.0,SW,4.6,-,N/A,,Clear,230,2013-10-25 05:52:00
1:52 AM,23.0,21.9,96,30.40,6.0,West,4.6,-,N/A,,Clear,260,2013-10-25 06:52:00
2:52 AM,24.1,21.9,91,30.39,10.0,WSW,5.8,-,N/A,,Clear,250,2013-10-25 07:52:00
3:52 AM,21.0,19.9,96,30.39,10.0,SW,4.6,-,N/A,,Clear,220,2013-10-25 08:52:00
4:52 AM,24.1,23.0,96,30.37,9.0,SW,4.6,-,N/A,,Clear,220,2013-10-25 09:52:00
5:52 AM,21.0,21.0,100,30.36,10.0,South,5.8,-,N/A,,Clear,190,2013-10-25 10:52:00
6:52 AM,21.9,19.9,92,30.35,10.0,South,6.9,-,N/A,,Clear,180,2013-10-25 11:52:00
7:52 AM,24.1,21.9,91,30.32,10.0,South,8.1,-,N/A,,Clear,180,2013-10-25 12:52:00
8:52 AM,28.9,27.0,92,30.31,10.0,South,9.2,-,N/A,,Partly Cloudy,180,2013-10-25 13:52:00
9:52 AM,35.1,30.9,85,30.30,10.0,SSW,11.5,-,N/A,,Overcast,200,2013-10-25 14:52:00
10:52 AM,44.1,30.0,58,30.25,10.0,SW,18.4,24.2,N/A,,Mostly Cloudy,220,2013-10-25 15:52:00
11:52 AM,48.9,30.9,50,30.21,10.0,SW,21.9,28.8,N/A,,Clear,220,2013-10-25 16:52:00
12:52 PM,53.1,34.0,48,30.16,10.0,SW,27.6,33.4,N/A,,Clear,230,2013-10-25 17:52:00
1:52 PM,55.0,35.1,47,30.11,10.0,SW,28.8,34.5,N/A,,Clear,230,2013-10-25 18:52:00
2:52 PM,57.0,36.0,45,30.06,10.0,SW,29.9,39.1,N/A,,Clear,230,2013-10-25 19:52:00
3:52 PM,59.0,36.0,42,30.04,10.0,SW,27.6,35.7,N/A,,Clear,230,2013-10-25 20:52:00
4:52 PM,59.0,37.0,44,29.99,10.0,SW,23.0,32.2,N/A,,Clear,230,2013-10-25 21:52:00
5:52 PM,55.9,37.0,49,29.98,10.0,SW,20.7,28.8,N/A,,Clear,220,2013-10-25 22:52:00
6:52 PM,53.1,37.0,55,29.97,10.0,SW,20.7,27.6,N/A,,Clear,220,2013-10-25 23:52:00
7:52 PM,51.1,36.0,56,29.96,10.0,SW,16.1,-,N/A,,Clear,220,2013-10-26 00:52:00
8:52 PM,48.9,36.0,61,29.96,10.0,SW,13.8,-,N/A,,Clear,220,2013-10-26 01:52:00
9:52 PM,50.0,35.1,57,29.95,10.0,WSW,21.9,31.1,N/A,,Clear,240,2013-10-26 02:52:00
10:52 PM,50.0,35.1,57,29.93,10.0,SW,20.7,29.9,N/A,,Clear,230,2013-10-26 03:52:00
11:52 PM,48.0,35.1,61,29.93,10.0,WSW,18.4,26.5,N/A,,Partly Cloudy,250,2013-10-26 04:52:00